Regional Weather Roundup
Issued by NWS

Home | Current Version | Previous Version | Text Only | Print | Product List | Glossary Off
Versions: 1 2 3 4 5 6 7 8 9 10 11 12 13 14 15 16 17 18 19 20 21 22 23 24 25 26 27 28 29 30 31 32 33 34 35 36 37 38 39 40 41 42 43 44 45 46 47 48 49 50

000
ASUS43 KMPX 200710
RWRMN
WEATHER ROUNDUP FOR MINNESOTA
NATIONAL WEATHER SERVICE TWIN CITIES/CHANHASSEN MN
100 AM CST SAT DEC 20 2014


NOTE: "FAIR" INDICATES FEW OR NO CLOUDS BELOW 12,000 FEET WITH NO
SIGNIFICANT WEATHER AND/OR OBSTRUCTIONS TO VISIBILITY. N/A MEANS
CURRENT SKY AND/OR WEATHER CONDITIONS ARE NOT AVAILABLE.

MNZ060>063-068>070-200800-
   Twin Cities Metro

CITY           SKY/WX    TMP DP  RH WIND       PRES   REMARKS
TWIN CITIES    CLOUDY    29  24  82 S8        30.16F HAZE    WCI  21
ST PAUL        CLOUDY    29  25  85 SE9       30.18S WCI  20
CRYSTAL        CLOUDY    30  26  85 S9        30.14F FOG     WCI  22
BLAINE         CLOUDY    30  28  93 S9        30.15S WCI  22
LAKEVILLE      CLOUDY    28  25  86 S5        30.16S WCI  23
EDEN PRAIRIE   CLOUDY    30  25  81 S9        30.14F HAZE    WCI  22
SOUTH ST PAUL  CLOUDY    30  25  83 S6        30.17S WCI  24
LAKE ELMO      CLOUDY    30  27  86 SE9       30.17F WCI  22
$$
MNZ001>005-007-008-013>017-022>024-027-028-200800-
   Northwest Minnesota

CITY           SKY/WX    TMP DP  RH WIND       PRES   REMARKS
BEMIDJI        CLOUDY    26  25  99 SE5       30.02S FOG     WCI  20
HALLOCK        CLOUDY    28  28 100 CALM      30.00S FOG
ROSEAU         CLOUDY    27  23  86 SE7       30.02S FOG     WCI  19
WARROAD        CLOUDY    27  21  80 SE8       30.02F FOG     WCI  18
THIEF RVR FALL CLOUDY    30  28  93 S8        30.01S WCI  23
CROOKSTON      CLOUDY    30  28  93 S6        30.02S FOG     WCI  24
FOSSTON        CLOUDY    28  27  93 S10       30.01S FOG     WCI  19
DETROIT LAKES  CLOUDY    30  30 100 S9        30.02S FOG     WCI  22
MOORHEAD       CLOUDY    30  30 100 S7        30.03S FOG     WCI  23
PARK RAPIDS    CLOUDY    30  28  92 S10       30.02S FOG     WCI  21
MAHNOMEN       CLOUDY    29  28  96 S10       30.01S FOG     WCI  20
$$
MNZ006-009>011-018-025>026-200800-
   North Central Minnesota

CITY           SKY/WX    TMP DP  RH WIND       PRES   REMARKS
BAUDETTE       CLOUDY    25  22  88 SE5       30.03F WCI  19
FLAG ISLAND    CLOUDY    25  23  93 S12       30.03S FOG     WCI  14
INTL FALLS     LGT SNOW  24  22  91 SE6       30.06F FOG     WCI  17
WASKISH        LGT SNOW  27  25  93 CALM      30.04S
BIG FORK       CLOUDY    27  25  93 S6        30.06R FOG     WCI  20
LONGVILLE      CLOUDY    27  27 100 S9        30.05S FOG     WCI  17
GRAND RAPIDS   CLOUDY    25  25 100 SE10      30.06S WCI  15
CRANE LAKE     LGT SNOW  25  21  86 CALM      30.11S
ORR            MIX PCPN  25  21  86 CALM      30.05S
COOK           LGT SNOW N/A N/A N/A SE3       30.08S
WALKER         LGT SNOW  28  27  96 S7        30.03S WCI  20
$$
MNZ012-019>021-037-200800-
   Northeast Minnesota

CITY           SKY/WX    TMP DP  RH WIND       PRES   REMARKS
DULUTH         CLOUDY    25  22  88 SE8       30.11F FOG     WCI  16
ELY            CLOUDY    25  23  93 S5        30.10S WCI  19
HIBBING        CLOUDY    26  22  84 SE6       30.08F FOG     WCI  19
EVELETH        MIX PCPN  27  25  93 SE7       30.10S WCI  19
DULUTH HARBOR  CLOUDY    28  25  86 CALM      30.17F
TWO HARBORS    CLOUDY    28  25  86 S3        30.13S
SILVER BAY     CLOUDY    28  27  93 CALM      30.13F FOG
GRAND MARAIS     N/A     31  24  75 S6        30.19S WCI  25
G MARAIS ARPRT CLOUDY    21  19  93 CALM      30.12S FOG
$$
MNZ029>031-032-039>041-046>048-054>057-064-200800-
   West Central Minnesota

CITY           SKY/WX    TMP DP  RH WIND       PRES   REMARKS
FERGUS FALLS   CLOUDY    30  28  93 S12       30.06S FOG     WCI  21
WHEATON        CLOUDY    28  27  93 S6        30.07R WCI  22
MORRIS         MOCLDY    30  28  93 S14       30.04F FOG     WCI  20
ALEXANDRIA     CLOUDY    30  27  88 S15       30.05F FOG     WCI  19
ELBOW LAKE     CLOUDY    29  29  99 S15       30.04R FOG     WCI  18
WADENA         CLOUDY    28  28 100 S9        30.04R FOG     WCI  20
GLENWOOD       CLOUDY    30  28  93 S18       30.07S FOG     WCI  18
APPLETON       CLOUDY    32  28  86 S5        30.06F WCI  27
BENSON         CLOUDY    30  28  93 SW8       30.08R FOG     WCI  23
ORTONVILLE     CLOUDY    30  27  86 S8        30.04S WCI  23
MADISON        PTCLDY    34  32  93 S6        30.06S WCI  29
WILLMAR        CLOUDY    32  28  86 S3        30.10S FOG
$$
MNZ033>034-036-042>043-049>051-058-059-200800-
   Central Minnesota

CITY           SKY/WX    TMP DP  RH WIND       PRES   REMARKS
ST CLOUD       CLOUDY    32  27  81 S12       30.11S HAZE    WCI  23
SAUK CENTRE    CLOUDY    30  28  92 S13       30.09R WCI  20
PAYNESVILLE    CLOUDY    28  28  96 SE7       30.10R FOG     WCI  21
AITKIN         CLOUDY    28  25  86 S6        30.07F HAZE    WCI  22
PINE RIVER     CLOUDY    28  28 100 S8        30.08F FOG     WCI  20
BRAINERD       CLOUDY    28  27  96 S8        30.08S FOG     WCI  20
STAPLES        CLOUDY    28  28 100 S9        30.05S FOG     WCI  20
LONG PRAIRIE   CLOUDY    30  28  93 S14       30.07S FOG     WCI  20
LITTLE FALLS   CLOUDY    30  28  93 SE8       30.09S FOG     WCI  23
LITCHFIELD     CLOUDY    32  32 100 S6        30.11S FOG     WCI  26
BUFFALO        CLOUDY    30  28  92 SE6       30.14S FOG     WCI  24
MAPLE LAKE     CLOUDY    31  30  96 SE7       30.13S FOG     WCI  24
$$
MNZ037-044-045-052-053-200800-
   East Central Minnesota

CITY           SKY/WX    TMP DP  RH WIND       PRES   REMARKS
PRINCETON      CLOUDY    30  27  86 SE7       30.13S FOG     WCI  23
MORA           CLOUDY    27  23  86 SE6       30.15S WCI  20
CAMBRIDGE      CLOUDY    30  21  69 SE6       30.13S WCI  24
RUSH CITY      CLOUDY    28  24  87 S6        30.15S WCI  21
MOOSE LAKE     CLOUDY    28  25  86 S6        30.11F WCI  22
HINCKLEY       CLOUDY    28  27  93 CALM      30.14F
CLOQUET        CLOUDY    25  23  93 SE5       30.11F FOG     WCI  19
MCGREGOR       CLOUDY    28  27  93 S10       30.09F WCI  19
$$
MNZ071>073-080-081-089-090-097-098-200800-
   Southwest Minnesota

CITY           SKY/WX    TMP DP  RH WIND       PRES   REMARKS
MONTEVIDEO     CLOUDY    30  30 100 SW10      30.09S FOG     WCI  21
GRANITE FALLS  CLOUDY    31  28  90 S14       30.10R WCI  21
CANBY          CLOUDY    31  29  92 SW7       30.07S WCI  25
MARSHALL       CLOUDY    30  27  86 S20       30.07F WCI  18
REDWOOD FALLS  CLOUDY    32  28  85 S13       30.10S FOG     WCI  22
OLIVIA         CLOUDY    32  30  93 S12G17    30.09S FOG     WCI  23
PIPESTONE      CLOUDY    30  28  93 S5        30.04S FOG     WCI  25
WINDOM         CLOUDY    30  28  93 S8G16     30.10S FOG     WCI  23
WORTHINGTON    CLOUDY    28  28 100 S9        30.08F WCI  20
JACKSON        CLOUDY    32  30  93 S13       30.11R WCI  22
TRACY          CLOUDY    31  29  92 S10       30.08S WCI  23
SLAYTON        CLOUDY    29  29 100 S6        30.06F FOG     WCI  23
$$
MNZ065>067-074>077-082>085-091>093-200800-
   South Central Minnesota

CITY           SKY/WX    TMP DP  RH WIND       PRES   REMARKS
MANKATO        CLOUDY    30  27  86 S10       30.14F WCI  21
NEW ULM        CLOUDY    30  30 100 S10       30.12F FOG     WCI  21
ST JAMES       CLOUDY    34  30  86 SE8       30.14S FOG     WCI  27
FAIRMONT       CLOUDY    30  27  86 S14       30.12S WCI  20
GLENCOE        CLOUDY    32  31  96 SE7       30.12F FOG     WCI  26
FARIBAULT      CLOUDY    28  27  93 S7        30.16S FOG     WCI  21
OWATONNA       MOCLDY    28  25  86 SE10      30.16S FOG     WCI  19
WASECA         CLOUDY    30  28  93 S8        30.16F FOG     WCI  23
ALBERT LEA     CLOUDY    28  28 100 S9        30.15F FOG     WCI  20
$$
MNZ078>079-086>088-094>096-200800-
   Southeast Minnesota

CITY           SKY/WX    TMP DP  RH WIND       PRES   REMARKS
ROCHESTER      CLOUDY    27  22  81 S9        30.17F WCI  18
RED WING       CLOUDY    30  23  74 S5        30.18F WCI  25
STANTON        CLOUDY    31  26  83 S8        30.15F WCI  23
DODGE CENTER   CLOUDY    28  27  93 S10       30.16S FOG     WCI  19
WINONA         CLOUDY    30  23  74 SE5       30.22F WCI  25
AUSTIN         CLOUDY    28  25  86 S7        30.16F WCI  21
PRESTON        CLOUDY    26  22  85 SE7       30.19S WCI  19
$$
ABBREVIATIONS USED IN REMARKS
   TC - TEMPERATURES IN CELSIUS
  WCI - WIND CHILL INDEX
   HX - HEAT INDEX
  VSB - VISIBILITY
$$


USA.gov is the U.S. government's official web portal to all federal, state and local government web resources and services.